Weather in Trubachevo

Russia / Tomsk District     56°40′28″N   84°14′32″E
temp.,
°C
wind,
m/s
gust,
m/s
humid.,
%
clouds,
%
prec.,
mm/h
press.,
hPa
HPBL,
m
27 january, wed
wed2701:00−29se3697100 0.1 1034241
04:00−25sse4998100 0.9 1028292
07:00−18s41296100 1.9 1023567
10:00−13ssw41095100 1.6 1019617
13:00−8wsw41093100 2.7 1016590
16:00−3wsw41195100 0.8 1015741
19:00−2nnw3797100 2.2 1018394
22:00−11n4793100 1.1 1021457
28 january, thu
thu2801:00−18nnw2694100 1.1 1024210
04:00−22nnw2296100 0.0 102732
07:00−24n1295100 0.0 102919
10:00−23nne1194100 0.0 103081
13:00−20e1196100 0.5 1029186
16:00−17e1297100 0.8 1026185
19:00−17e1297100 1.6 102594
22:00−15se1297100 0.5 102377
29 january, fri
fri2901:00−9sw31094100 0.7 1020571
04:00−8sw51194100 0.4 1016719
07:00−7sw51294100 0.8 1014810
10:00−5w51194100 2.5 1014815
13:00−4w51090100 2.6 1016802
16:00−3w4989100 0.1 1018947
19:00−6nw2697100 0.8 1020266
22:00−9n1297100 0.8 102167
30 january, sat
sat3001:00−12nnw31095100 1.4 1023451
04:00−18nw3894100 0.2 1025387
07:00−26nnw259678 0.2 102991
10:00−29nnw2696100 0.0 1032162
13:00−28nnw239495 0.0 1034289
16:00−27n23931 0.0 1036252
19:00−32nne22951 0.0 103819
22:00−33ene12976 0.0 103919
31 january, sun
sun3101:00−32e229633 0.0 104019
04:00−31e229568 0.0 103966
07:00−29e259482 0.0 1038143
10:00−27e3692100 0.0 1037230
13:00−24ese3592100 0.0 1034242
16:00−21e3593100 0.0 1032244
19:00−21ese3793100 0.0 1030212
22:00−21ese2694100 0.0 1028174